Weather History for Topeka, KS

Change the Weather History Date:

Friday, May 11, 2012

  Actual Average Record
Temperature  
Mean Temperature 68 °F 64 °F  
Max Temperature 80 °F 74 °F 95 °F (2000)
Min Temperature 56 °F 53 °F 31 °F (1981)
Degree Days  
Heating Degree Days 0 4  
Month to date heating degree days 7 54  
Since 1 July heating degree days 3777 4971  
Cooling Degree Days 3 2  
Month to date cooling degree days 71 20  
Year to date cooling degree days 166 48  
Growing Degree Days 18 (Base 50)    
Moisture  
Dew Point 56 °F    
Average Humidity 66    
Maximum Humidity 93    
Minimum Humidity 39    
Precipitation  
Precipitation 0.03 in 0.16 in 2.11 in (1929)
Month to date precipitation 0.95 1.70  
Year to date precipitation 9.62 9.90  
Snow  
Snow 0.00 in 0.00 in T in (1999)
Month to date snowfall 0.0 0.0  
Year to date snowfall 3.0 11.3  
Since 1 July snowfall 3.1 17.8  
Snow Depth 0.00 in    
Sea Level Pressure  
Sea Level Pressure 30.02 in    
Wind  
Wind Speed 3 mph (South)    
Max Wind Speed 14 mph    
Max Gust Speed 20 mph    
Visibility 10 miles    
Events Rain , Thunderstorm    
T = Trace of Precipitation, MM = Missing Value Source: NWS Daily Summary

Daily Weather History Graph

Daily Weather History Graph

Search for Another Location

Airport:

Trip Planner

Search our weather history database for the weather conditions in past years. The results will help you decide how hot, cold, wet, or windy it might be!

Date:

Astronomy

May. 11, 2012 Rise Set
Actual Time 6:12 AM CDT 8:25 PM CDT
Civil Twilight 5:43 AM CDT 8:55 PM CDT
Nautical Twilight 5:06 AM CDT 9:32 PM CDT
Astronomical Twilight 4:26 AM CDT 10:12 PM CDT
Moon 1:06 AM CDT (5/11) 11:46 AM CDT (5/11)
Length of Visible Light 15h 12m
Length of Day
14h 12m
Waning Gibbous, 63% of the Moon is Illuminated
May 11
Waning Gibbous
May 12
Last Quarter
May 20
New
May 28
First Quarter
Jun 4
Full

Hourly Weather History & Observations

Time (CDT) Temp. Heat Index Dew Point Humidity Pressure Visibility Wind Dir Wind Speed Gust Speed Precip Events Conditions
12:53 AM 66.9 °F - 54.0 °F 63% 29.89 in 10.0 mi South 8.1 mph - N/A   Clear
1:53 AM 66.0 °F - 54.0 °F 65% 29.89 in 10.0 mi SSW 5.8 mph - N/A   Clear
2:53 AM 64.0 °F - 54.0 °F 70% 29.89 in 10.0 mi SSW 5.8 mph - N/A   Clear
3:53 AM 62.1 °F - 54.0 °F 75% 29.91 in 10.0 mi South 4.6 mph - N/A   Clear
4:53 AM 57.9 °F - 54.0 °F 87% 29.94 in 10.0 mi Calm Calm - N/A   Clear
5:53 AM 57.0 °F - 54.0 °F 89% 29.96 in 10.0 mi Calm Calm - N/A   Clear
6:53 AM 57.0 °F - 54.0 °F 89% 29.99 in 10.0 mi Calm Calm - N/A   Clear
7:53 AM 62.1 °F - 55.9 °F 80% 30.00 in 10.0 mi East 4.6 mph - N/A   Clear
8:53 AM 66.0 °F - 57.0 °F 73% 30.01 in 10.0 mi SE 4.6 mph - N/A   Clear
9:53 AM 71.1 °F - 57.0 °F 61% 30.03 in 10.0 mi Calm Calm - N/A   Clear
10:53 AM 75.0 °F - 57.0 °F 53% 30.03 in 10.0 mi Variable 3.5 mph - N/A   Clear
11:53 AM 78.1 °F - 55.9 °F 46% 30.04 in 10.0 mi South 3.5 mph - N/A   Clear
12:53 PM 78.1 °F - 54.0 °F 43% 30.04 in 10.0 mi Variable 3.5 mph - N/A   Clear
1:53 PM 78.1 °F - 53.1 °F 42% 30.05 in 10.0 mi SW 4.6 mph - N/A   Clear
2:53 PM 80.1 °F 80.1 °F 55.0 °F 42% 30.05 in 10.0 mi Calm Calm - N/A   Mostly Cloudy
3:53 PM 79.0 °F - 52.0 °F 39% 30.04 in 10.0 mi East 3.5 mph - N/A   Clear
4:53 PM 77.0 °F - 55.0 °F 47% 30.05 in 10.0 mi NE 5.8 mph - N/A   Mostly Cloudy
5:53 PM 71.1 °F - 60.1 °F 68% 30.06 in 6.0 mi NNW 6.9 mph - 0.01 in Rain Light Rain
6:04 PM 71.6 °F - 62.6 °F 73% 30.07 in 10.0 mi East 5.8 mph - 0.00 in Thunderstorm Overcast
6:33 PM 69.8 °F - 57.2 °F 64% 30.08 in 10.0 mi SW 9.2 mph - 0.00 in Rain Light Rain
6:53 PM 66.0 °F - 57.9 °F 75% 30.06 in 10.0 mi WSW 5.8 mph - 0.02 in Rain Light Rain
7:53 PM 66.9 °F - 61.0 °F 81% 30.07 in 10.0 mi Calm Calm - 0.00 in   Mostly Cloudy
8:53 PM 66.0 °F - 62.1 °F 87% 30.07 in 10.0 mi West 3.5 mph - N/A   Clear
9:53 PM 64.0 °F - 62.1 °F 93% 30.09 in 9.0 mi NW 3.5 mph - N/A   Clear
10:53 PM 64.0 °F - 61.0 °F 90% 30.12 in 10.0 mi Calm Calm - N/A   Partly Cloudy
11:53 PM 64.0 °F - 59.0 °F 84% 30.12 in 10.0 mi Calm Calm - N/A   Overcast